Weather in Loviisa

Finland     60°27′26″N   26°13′34″E
temp.,
°C
wind,
m/s
gust,
m/s
humid.,
%
clouds,
%
prec.,
mm/h
press.,
hPa
HPBL,
m
19 september, sun
sun1900:00+6ene398854 0.0 1028287
03:00+7ene3983100 0.1 1027403
06:00+6ene49826 0.1 1028539
09:00+6ene4108059 0.1 1029755
12:00+9e585829 0.0 10281265
15:00+11e56505 0.0 10281396
18:00+10ene47565 0.0 10271218
21:00+6ne5107110 0.0 1029584
20 september, mon
mon2000:00+4ne4117816 0.0 1029424
03:00+4ne410785 0.0 1029375
06:00+4ne4118636 0.0 1029405
09:00+6ene511767 0.0 1029709
12:00+9e585824 0.0 10291292
15:00+10e574943 0.0 10281390
18:00+8ene475893 0.0 10281160
21:00+5ne387498 0.0 1028310
21 september, tue
tue2100:00+4ne388272 0.0 1027236
03:00+3ne3886100 0.0 1027207
06:00+3ne3778100 0.0 1026171
09:00+6ne2565100 0.0 1025406
12:00+8ene235628 0.0 10251175
15:00+9e224993 0.0 10241326
18:00+8n11569 0.0 102339
21:00+4nne24775 0.0 102488
22 september, wed
wed2200:00+3nne24855 0.0 102488
03:00+2nne24875 0.0 102474
06:00+1n2489100 0.0 102474
09:00+4nne2378100 0.0 1023122
12:00+9e115977 0.0 1023569
15:00+10s215597 0.0 1021780
18:00+7s2370100 0.0 1019207
21:00+6s2479100 0.0 101799
23 september, thu
thu2300:00+6sse3681100 0.0 1014176
03:00+7s4882100 0.0 1011326
06:00+7s4882100 0.0 1008446
09:00+8sse5978100 0.0 1006717
12:00+9sse61070100 0.1 1003829
15:00+10sse61066100 0.1 1000929
18:00+10sse6967100 0.0 998883
21:00+9sse61070100 0.0 995839